W5CGC Weather Reports


Display with metric or nautical units.
time (UTC)temp
F
wind
direction
speed
MPH
gust
MPH
rain 1hr
in
rain 24hr
in
rain mn
in
humidity
%
barometer
mb
20260831100043 82 112 0.0 2.0 0.00 0.00 0.00 49 1014.4
20260831094553 82 116 0.0 3.0 0.00 0.00 0.00 48 1014.4
20260831093041 82 117 0.0 2.0 0.00 0.00 0.00 47 1014.4
20260831091546 82 116 0.0 2.0 0.00 0.00 0.00 47 1014.4
20260831090046 82 0 0.0 3.0 0.00 0.00 0.00 45 1014.3
20260831084542 83 116 0.0 4.0 0.00 0.00 0.00 44 1014.2
20260831083045 83 115 0.0 3.0 0.00 0.00 0.00 43 1014.3
20260831081541 84 122 0.0 4.0 0.00 0.00 0.00 42 1014.3
20260831080043 84 115 1.0 5.0 0.00 0.00 0.00 41 1014.3
20260831074547 84 104 1.0 4.0 0.00 0.00 0.00 40 1014.2
20260831073046 83 115 1.0 2.0 0.00 0.00 0.00 40 1014.1
20260831071545 83 96 0.0 3.0 0.00 0.00 0.00 40 1014.1
20260831070048 82 119 1.0 2.0 0.00 0.00 0.00 41 1014.1
20260831064547 82 0 0.0 0.0 0.00 0.00 0.00 42 1014.2
20260831063043 83 0 0.0 1.0 0.00 0.00 0.00 41 1014.3
20260831061540 83 0 0.0 1.0 0.00 0.00 0.00 40 1014.1
20260831060044 83 0 0.0 1.0 0.00 0.00 0.00 41 1014.1
20260831054543 83 0 0.0 1.0 0.00 0.00 0.00 41 1014.2
20260831053042 83 0 0.0 1.0 0.00 0.00 0.00 41 1014.1
20260831051551 82 0 0.0 0.0 0.00 0.00 0.00 43 1014.0
20260831050045 82 0 0.0 0.0 0.00 0.00 0.00 42 1013.9
20260831044541 83 0 0.0 0.0 0.00 0.00 0.00 40 1013.8
20260831043041 85 0 0.0 0.0 0.00 0.00 0.00 37 1013.9
20260831041548 86 0 0.0 1.0 0.00 0.00 0.00 36 1013.8
20260831040044 86 0 0.0 1.0 0.00 0.00 0.00 35 1013.8
20260831034548 87 0 0.0 1.0 0.00 0.00 0.00 34 1013.8
20260831033038 88 0 0.0 1.0 0.00 0.00 0.00 33 1013.7
20260831031540 88 0 0.0 1.0 0.00 0.00 0.00 33 1013.6
20260831030042 87 0 0.0 0.0 0.00 0.00 0.00 34 1013.5
20260831024545 88 0 0.0 0.0 0.00 0.00 0.00 32 1013.3
20260831023041 88 0 0.0 0.0 0.00 0.00 0.00 31 1013.2
20260831021541 89 0 0.0 1.0 0.00 0.00 0.00 31 1012.9
20260831020052 88 0 0.0 1.0 0.00 0.00 0.00 30 1012.6
20260831014549 88 0 0.0 0.0 0.00 0.00 0.00 29 1012.4
20260831013101 90 0 0.0 0.0 0.00 0.00 0.00 27 1012.2
20260831011549 91 0 0.0 0.0 0.00 0.00 0.00 25 1012.1
20260831010051 94 0 0.0 1.0 0.00 0.00 0.00 23 1012.0
20260831004543 94 0 0.0 4.0 0.00 0.00 0.00 21 1011.9
20260831003045 95 0 0.0 3.0 0.00 0.00 0.00 21 1012.0
20260831001544 96 81 2.0 8.0 0.00 0.00 0.00 20 1012.0
20260831000044 97 125 1.0 7.0 0.00 0.00 0.00 19 1012.1
20260830234543 97 118 1.0 5.0 0.00 0.00 0.00 18 1012.0
20260830233045 98 112 2.0 8.0 0.00 0.00 0.00 16 1012.1
20260830231543 98 124 1.0 9.0 0.00 0.00 0.00 16 1012.1
20260830230040 99 150 2.0 10.0 0.00 0.00 0.00 16 1012.3
20260830224542 99 160 1.0 7.0 0.00 0.00 0.00 16 1012.3
20260830223107 99 158 1.0 9.0 0.00 0.00 0.00 16 1012.4
20260830221546 99 20 1.0 9.0 0.00 0.00 0.00 16 1012.4
20260830220044 101 158 0.0 7.0 0.00 0.00 0.00 16 1012.4
20260830214546 101 55 1.0 5.0 0.00 0.00 0.00 15 1012.4
20260830213045 101 170 0.0 8.0 0.00 0.00 0.00 16 1012.5
20260830211547 101 171 0.0 4.0 0.00 0.00 0.00 16 1012.8
20260830210040 101 84 0.0 7.0 0.00 0.00 0.00 17 1012.8
20260830204549 101 146 2.0 10.0 0.00 0.00 0.00 17 1013.1
20260830203042 103 133 2.0 7.0 0.00 0.00 0.00 15 1013.3
20260830201541 102 131 1.0 8.0 0.00 0.00 0.00 17 1013.5
20260830200045 102 172 2.0 7.0 0.00 0.00 0.00 17 1013.9
20260830194544 103 73 1.0 6.0 0.00 0.00 0.00 16 1014.0
20260830193042 102 141 3.0 10.0 0.00 0.00 0.00 17 1014.2
20260830191546 101 354 2.0 9.0 0.00 0.00 0.00 18 1014.3
20260830190058 101 165 1.0 9.0 0.00 0.00 0.00 19 1014.5
20260830184541 100 161 3.0 10.0 0.00 0.00 0.00 20 1014.6
20260830183058 100 117 1.0 6.0 0.00 0.00 0.00 20 1014.8
20260830181544 100 106 1.0 6.0 0.00 0.00 0.00 22 1015.1
20260830180044 99 90 2.0 8.0 0.00 0.00 0.00 24 1015.3
20260830174556 98 146 1.0 8.0 0.00 0.00 0.00 25 1015.5
20260830173041 97 149 1.0 10.0 0.00 0.00 0.00 27 1015.7
20260830171542 96 95 1.0 6.0 0.00 0.00 0.00 26 1015.9
20260830170042 96 89 0.0 6.0 0.00 0.00 0.00 30 1016.1
20260830164555 95 123 2.0 8.0 0.00 0.00 0.00 29 1016.3
20260830163046 94 128 0.0 6.0 0.00 0.00 0.00 33 1016.3
20260830161547 93 147 1.0 3.0 0.00 0.00 0.00 34 1016.4
20260830160043 92 0 1.0 5.0 0.00 0.00 0.00 37 1016.4
20260830154542 91 0 0.0 8.0 0.00 0.00 0.00 38 1016.4
20260830153047 90 134 0.0 3.0 0.00 0.00 0.00 42 1016.4
20260830151546 89 0 0.0 2.0 0.00 0.00 0.00 43 1016.4
20260830150040 87 122 0.0 5.0 0.00 0.00 0.00 43 1016.3
20260830144540 86 0 0.0 3.0 0.00 0.00 0.00 45 1016.3
20260830143049 85 0 0.0 4.0 0.00 0.00 0.00 47 1016.3
20260830141543 84 115 0.0 5.0 0.00 0.00 0.00 49 1016.4
20260830140046 83 0 0.0 1.0 0.00 0.00 0.00 52 1016.4
20260830134545 82 0 0.0 3.0 0.00 0.00 0.00 54 1016.4
20260830133040 80 129 0.0 1.0 0.00 0.00 0.00 56 1016.3
20260830131547 79 0 0.0 1.0 0.00 0.00 0.00 59 1016.2
20260830130045 77 0 0.0 1.0 0.00 0.00 0.00 61 1016.0
20260830124542 75 0 0.0 0.0 0.00 0.00 0.00 63 1015.7
20260830123041 75 0 0.0 0.0 0.00 0.00 0.00 62 1015.6
20260830121541 75 0 0.0 0.0 0.00 0.00 0.00 61 1015.5
20260830120042 75 0 0.0 0.0 0.00 0.00 0.00 60 1015.4
20260830114541 75 0 0.0 0.0 0.00 0.00 0.00 60 1015.2
20260830113043 76 0 0.0 0.0 0.00 0.00 0.00 59 1015.0
20260830111539 76 0 0.0 0.0 0.00 0.00 0.00 59 1014.9
20260830110043 76 0 0.0 0.0 0.00 0.00 0.00 57 1014.7
20260830104602 77 0 0.0 0.0 0.00 0.00 0.00 57 1014.5
20260830103042 77 0 0.0 0.0 0.00 0.00 0.00 55 1014.5
20260830101540 78 0 0.0 0.0 0.00 0.00 0.00 54 1014.3